Stations météo

Publicité
Cap Ferret, France (7500): Température de l'air & dewpoint: 11.07.2018 06:00:00 - 17.07.2018 06:00:00 (CEST)Cap Ferret, France (7500): Vitesse du vent & gusts: 11.07.2018 06:00:00 - 17.07.2018 06:00:00 (CEST)Cap Ferret, France (7500): Direction du vent: 11.07.2018 06:00:00 - 17.07.2018 06:00:00 (CEST)Cap Ferret, France (7500): reduced air pressure: 11.07.2018 06:00:00 - 17.07.2018 06:00:00 (CEST)Cap Ferret, France (7500): visibility: 11.07.2018 06:00:00 - 17.07.2018 06:00:00 (CEST)Cap Ferret, France (7500): Quantités de précipitations: 11.07.2018 06:00:00 - 17.07.2018 06:00:00 (CEST)
Date & Time tt [°C] td [°C] ff [km/h] ff [knt] fx [km/h] fx [knt] dd ppp [hPa] vv [km] rr [mm]
17.07.2018 06:00:00 - - - - - - - - - -
17.07.2018 05:00:00 - - - - - - - - - -
17.07.2018 04:00:00 - - - - - - - - - -
17.07.2018 03:00:00 - - - - - - - - - -
17.07.2018 02:00:00 - - - - - - - - - -
17.07.2018 01:00:00 - - - - - - - - - -
17.07.2018 00:00:00 - - - - - - - - - -
16.07.2018 23:00:00 - - - - - - - - - -
16.07.2018 22:00:00 - - - - - - - - - -
16.07.2018 21:00:00 - - - - - - - - - -
16.07.2018 20:00:00 - - - - - - - - - -
16.07.2018 19:00:00 - - - - - - - - - -
16.07.2018 18:00:00 - - - - - - - - - -
16.07.2018 17:00:00 - - - - - - - - - -
16.07.2018 16:00:00 - - - - - - - - - -
16.07.2018 15:00:00 - - - - - - - - - -
16.07.2018 14:00:00 - - - - - - - - - -
16.07.2018 13:00:00 - - - - - - - - - -
16.07.2018 12:00:00 - - - - - - - - - -
16.07.2018 11:00:00 - - - - - - - - - -
16.07.2018 10:00:00 - - - - - - - - - -
16.07.2018 09:00:00 - - - - - - - - - -
16.07.2018 08:00:00 - - - - - - - - - -
16.07.2018 07:00:00 - - - - - - - - - -
16.07.2018 06:00:00 - - - - - - - - - -
16.07.2018 05:00:00 - - - - - - - - - -
16.07.2018 04:00:00 - - - - - - - - - -
16.07.2018 03:00:00 - - - - - - - - - -
16.07.2018 02:00:00 - - - - - - - - - -
16.07.2018 01:00:00 - - - - - - - - - -
16.07.2018 00:00:00 - - - - - - - - - -
15.07.2018 23:00:00 - - - - - - - - - -
15.07.2018 22:00:00 - - - - - - - - - -
15.07.2018 21:00:00 - - - - - - - - - -
15.07.2018 20:00:00 - - - - - - - - - -
15.07.2018 19:00:00 - - - - - - - - - -
15.07.2018 18:00:00 - - - - - - - - - -
15.07.2018 17:00:00 - - - - - - - - - -
15.07.2018 16:00:00 - - - - - - - - - -
15.07.2018 15:00:00 - - - - - - - - - -
15.07.2018 14:00:00 - - - - - - - - - -
15.07.2018 13:00:00 - - - - - - - - - -
15.07.2018 12:00:00 - - - - - - - - - -
15.07.2018 11:00:00 - - - - - - - - - -
15.07.2018 10:00:00 - - - - - - - - - -
15.07.2018 09:00:00 - - - - - - - - - -
15.07.2018 08:00:00 - - - - - - - - - -
15.07.2018 07:00:00 - - - - - - - - - -
15.07.2018 06:00:00 - - - - - - - - - -
15.07.2018 05:00:00 - - - - - - - - - -
15.07.2018 04:00:00 - - - - - - - - - -
15.07.2018 03:00:00 - - - - - - - - - -
15.07.2018 02:00:00 - - - - - - - - - -
15.07.2018 01:00:00 - - - - - - - - - -
15.07.2018 00:00:00 - - - - - - - - - -
14.07.2018 23:00:00 - - - - - - - - - -
14.07.2018 22:00:00 - - - - - - - - - -
14.07.2018 21:00:00 - - - - - - - - - -
14.07.2018 20:00:00 - - - - - - - - - -
14.07.2018 19:00:00 - - - - - - - - - -
14.07.2018 18:00:00 - - - - - - - - - -
14.07.2018 17:00:00 - - - - - - - - - -
14.07.2018 16:00:00 - - - - - - - - - -
14.07.2018 15:00:00 - - - - - - - - - -
14.07.2018 14:00:00 - - - - - - - - - -
14.07.2018 13:00:00 - - - - - - - - - -
14.07.2018 12:00:00 - - - - - - - - - -
14.07.2018 11:00:00 - - - - - - - - - -
14.07.2018 10:00:00 - - - - - - - - - -
14.07.2018 09:00:00 - - - - - - - - - -
14.07.2018 08:00:00 - - - - - - - - - -
14.07.2018 07:00:00 - - - - - - - - - -
14.07.2018 06:00:00 - - - - - - - - - -
14.07.2018 05:00:00 - - - - - - - - - -
14.07.2018 04:00:00 - - - - - - - - - -
14.07.2018 03:00:00 - - - - - - - - - -
14.07.2018 02:00:00 - - - - - - - - - -
14.07.2018 01:00:00 - - - - - - - - - -
14.07.2018 00:00:00 - - - - - - - - - -
13.07.2018 23:00:00 - - - - - - - - - -
13.07.2018 22:00:00 - - - - - - - - - -
13.07.2018 21:00:00 - - - - - - - - - -
13.07.2018 20:00:00 - - - - - - - - - -
13.07.2018 19:00:00 - - - - - - - - - -
13.07.2018 18:00:00 - - - - - - - - - -
13.07.2018 17:00:00 - - - - - - - - - -
13.07.2018 16:00:00 - - - - - - - - - -
13.07.2018 15:00:00 - - - - - - - - - -
13.07.2018 14:00:00 - - - - - - - - - -
13.07.2018 13:00:00 - - - - - - - - - -
13.07.2018 12:00:00 - - - - - - - - - -
13.07.2018 11:00:00 - - - - - - - - - -
13.07.2018 10:00:00 - - - - - - - - - -
13.07.2018 09:00:00 - - - - - - - - - -
13.07.2018 08:00:00 - - - - - - - - - -
13.07.2018 07:00:00 - - - - - - - - - -
13.07.2018 06:00:00 - - - - - - - - - -
13.07.2018 05:00:00 - - - - - - - - - -
13.07.2018 04:00:00 - - - - - - - - - -
13.07.2018 03:00:00 - - - - - - - - - -
13.07.2018 02:00:00 - - - - - - - - - -
13.07.2018 01:00:00 - - - - - - - - - -
13.07.2018 00:00:00 - - - - - - - - - -
12.07.2018 23:00:00 - - - - - - - - - -
12.07.2018 22:00:00 - - - - - - - - - -
12.07.2018 21:00:00 - - - - - - - - - -
12.07.2018 20:00:00 - - - - - - - - - -
12.07.2018 19:00:00 - - - - - - - - - -
12.07.2018 18:00:00 - - - - - - - - - -
12.07.2018 17:00:00 - - - - - - - - - -
12.07.2018 16:00:00 - - - - - - - - - -
12.07.2018 15:00:00 26,0 15,1 19 10 29 16 NW 1017,9 - 0,0
12.07.2018 14:00:00 26,2 15,6 16 9 27 14 WNW 1017,9 20 0,0
12.07.2018 13:00:00 25,5 15,2 15 8 26 14 NW 1018,0 - 0,0
12.07.2018 12:00:00 24,9 14,4 16 9 25 13 NNW 1017,8 - 0,0
12.07.2018 11:00:00 24,2 13,1 11 6 25 14 NNE 1017,7 15 0,0
12.07.2018 10:00:00 22,6 13,4 15 8 29 15 NNE 1017,4 - 0,0
12.07.2018 09:00:00 21,0 13,4 16 9 29 16 NE 1017,0 - 0,0
12.07.2018 08:00:00 19,3 14,1 16 9 27 15 NNE 1016,7 15 0,0
12.07.2018 07:00:00 18,8 13,4 16 9 27 14 NNE 1016,2 - 0,0
12.07.2018 06:00:00 19,1 13,7 18 10 28 15 NE 1015,9 - 0,0
12.07.2018 05:00:00 19,5 13,7 19 10 30 16 NE 1015,8 15 0,0
12.07.2018 04:00:00 19,9 13,8 19 10 34 18 NE 1015,9 - 0,0
12.07.2018 03:00:00 20,7 13,9 21 12 36 19 NE 1016,1 - 0,0
12.07.2018 02:00:00 20,9 14,3 17 9 34 18 NE 1016,0 15 0,0
12.07.2018 01:00:00 21,6 14,5 16 9 27 15 NE 1016,0 - 0,0
12.07.2018 00:00:00 21,1 13,3 10 5 18 10 NNE 1016,1 - 0,0
11.07.2018 23:00:00 21,6 12,7 10 6 16 9 N 1016,1 15 0,0
11.07.2018 22:00:00 23,1 13,6 11 6 19 11 N 1015,4 - 0,0
11.07.2018 21:00:00 25,2 12,8 14 8 29 16 N 1014,9 - 0,0
11.07.2018 20:00:00 25,1 15,1 19 10 39 21 N 1015,0 15 0,0
11.07.2018 19:00:00 26,1 16,1 21 11 40 22 N 1015,5 - 0,0
11.07.2018 18:00:00 26,6 15,3 24 13 37 20 NNW 1016,2 - 0,0
11.07.2018 17:00:00 26,8 16,4 26 14 39 21 NNW 1016,4 15 0,0
11.07.2018 16:00:00 26,8 18,4 24 13 35 19 NNW 1016,7 - 0,0
11.07.2018 15:00:00 27,0 17,2 21 12 32 17 NNW 1016,8 - 0,0
11.07.2018 14:00:00 26,5 18,6 20 11 27 14 NW 1016,7 15 0,0
11.07.2018 13:00:00 27,6 19,7 14 8 21 11 WNW 1016,8 - 0,0
11.07.2018 12:00:00 27,1 20,0 10 6 18 10 W 1017,1 - 0,0
11.07.2018 11:00:00 25,9 18,3 9 5 18 10 WSW 1017,0 15 0,0
11.07.2018 10:00:00 25,0 16,7 4 2 12 6 SE 1017,0 - 0,0
11.07.2018 09:00:00 23,4 16,9 4 2 18 10 E 1017,0 - 0,0
11.07.2018 08:00:00 21,1 17,5 9 5 16 9 NE 1017,0 15 0,0
11.07.2018 07:00:00 19,8 17,2 9 5 14 8 ENE 1016,9 - 0,0
11.07.2018 06:00:00 20,1 17,3 11 6 23 12 ENE 1016,8 - 0,0

tt = Température de l'air
td = dewpoint
ff = Vitesse du vent
fx = gusts
dd = Direction du vent
ppp = reduced air pressure
vv = visibility
rr = Quantités de précipitations

stations d'obs. à proximité